Location: Pacheco
(37.9835°N, 122.0752°W)
Time: 09:16:41
(UTC+00:00)

IRS-1D - Pass Details

Date: 13 April 2024
Orbit: 739 x 813 km, 98.8° (Epoch: 23 May)

Event Time Altitude Azimuth Distance (km) Brightness Sun altitude
Rises 12:29:30 0° 3° (N) 3,228 7.1 -13.1°
Reaches altitude 10° 12:31:56 10° 355° (N) 2,310 6.2 -12.6°
Maximum altitude 12:36:33 36° 290° (WNW) 1,214 4.2 -11.8°
Enters shadow 12:40:46 12° 228° (SW) 2,174 5.3 -11.0°
